Weather History for KAUG - May, 2014

Change the Weather History Date:

Saturday, May 3, 2014

  Actual Average Record
Temperature  
Mean Temperature 56 °F 51 °F  
Max Temperature 66 °F 61 °F 91 °F (2001)
Min Temperature 45 °F 41 °F 35 °F (1997)
Degree Days  
Heating Degree Days 9 14  
Month to date heating degree days 38 44  
Since 1 July heating degree days 7443 7048  
Cooling Degree Days 0 0  
Month to date cooling degree days 0 0  
Year to date cooling degree days 0 0  
Growing Degree Days 4 (Base 50)    
Moisture  
Dew Point 37 °F    
Average Humidity 54    
Maximum Humidity 76    
Minimum Humidity 31    
Precipitation  
Precipitation T in 0.12 in 0.73 in (2004)
Month to date precipitation 0.54 0.37  
Year to date precipitation 11.10 12.57  
Sea Level Pressure  
Sea Level Pressure 29.77 in    
Wind  
Wind Speed 5 mph (SSW)    
Max Wind Speed 13 mph    
Max Gust Speed 22 mph    
Visibility 10 miles    
Events      
T = Trace of Precipitation, MM = Missing Value Source: NWS Daily Summary

Daily Weather History Graph

Daily Weather History Graph

Search for Another Location

Airport or City:

Trip Planner

Search our weather history database for the weather conditions in past years. The results will help you decide how hot, cold, wet, or windy it might be!

Date:

Astronomy

May. 03, 2014 Rise Set
Actual Time 5:27 AM EDT 7:45 PM EDT
Civil Twilight 4:55 AM EDT 8:17 PM EDT
Nautical Twilight 4:15 AM EDT 8:57 PM EDT
Astronomical Twilight 3:30 AM EDT 9:42 PM EDT
Moon 8:52 AM EDT (5/3) 11:50 PM EDT (5/3)
Length of Visible Light 15h 22m
Length of Day
14h 18m
Waxing Crescent, 19% of the Moon is Illuminated
May 3
Waxing Crescent
May 6
First Quarter
May 14
Full
May 21
Last Quarter
May 28
New

Hourly Weather History & Observations

Time (EDT) Temp. Windchill Dew Point Humidity Pressure Visibility Wind Dir Wind Speed Gust Speed Precip Events Conditions
12:53 AM 52.0 °F - 37.0 °F 57% 29.76 in 10.0 mi West 3.5 mph - N/A   Overcast
1:53 AM 48.9 °F - 37.9 °F 66% 29.76 in 10.0 mi West 4.6 mph - N/A   Clear
2:53 AM 46.9 °F - 37.0 °F 68% 29.77 in 10.0 mi West 3.5 mph - N/A   Clear
3:53 AM 46.9 °F - 36.0 °F 66% 29.78 in 10.0 mi SW 3.5 mph - N/A   Overcast
4:53 AM 48.0 °F - 36.0 °F 63% 29.79 in 10.0 mi Variable 3.5 mph - N/A   Overcast
5:53 AM 45.0 °F 43.5 °F 37.9 °F 76% 29.81 in 10.0 mi SW 3.5 mph - N/A   Overcast
6:53 AM 46.9 °F - 37.0 °F 68% 29.82 in 10.0 mi SW 3.5 mph - N/A   Overcast
7:53 AM 48.0 °F - 37.9 °F 68% 29.83 in 10.0 mi Calm Calm - N/A   Overcast
8:53 AM 52.0 °F - 37.9 °F 59% 29.83 in 10.0 mi Calm Calm - N/A   Overcast
9:53 AM 55.9 °F - 36.0 °F 47% 29.83 in 10.0 mi Variable 3.5 mph - N/A   Overcast
10:53 AM 57.9 °F - 34.0 °F 41% 29.82 in 10.0 mi SSW 6.9 mph - N/A   Overcast
11:53 AM 61.0 °F - 32.0 °F 34% 29.79 in 10.0 mi Variable 6.9 mph - N/A   Clear
12:53 PM 62.1 °F - 32.0 °F 32% 29.77 in 10.0 mi Variable 4.6 mph - N/A   Clear
1:53 PM 63.0 °F - 32.0 °F 31% 29.75 in 10.0 mi Variable 6.9 mph - N/A   Overcast
2:53 PM 64.9 °F - 33.1 °F 31% 29.73 in 10.0 mi Variable 4.6 mph - N/A   Overcast
3:53 PM 62.6 °F - 35.6 °F 37% 29.72 in 10.0 mi SSW 8.1 mph - N/A   Overcast
4:53 PM 61.0 °F - 37.9 °F 42% 29.74 in 10.0 mi South 10.4 mph 16.1 mph N/A   Overcast
5:53 PM 59.0 °F - 39.0 °F 48% 29.74 in 10.0 mi SSW 9.2 mph - N/A   Overcast
6:53 PM 55.9 °F - 41.0 °F 57% 29.75 in 10.0 mi South 5.8 mph - N/A   Overcast
7:53 PM 53.1 °F - 41.0 °F 64% 29.76 in 10.0 mi South 6.9 mph - N/A   Overcast
8:53 PM 52.0 °F - 41.0 °F 66% 29.76 in 10.0 mi South 5.8 mph - N/A   Scattered Clouds
9:53 PM 51.1 °F - 39.0 °F 63% 29.75 in 10.0 mi SSE 3.5 mph - N/A   Clear
10:53 PM 50.0 °F - 41.0 °F 71% 29.74 in 10.0 mi SE 4.6 mph - 0.00 in   Overcast
11:53 PM 50.0 °F - 41.0 °F 71% 29.73 in 10.0 mi Calm Calm - 0.00 in   Overcast